KLM58B EHRD-LFPG

Flight info

Callsign KLM58B
Flight time 0h 47m
Altitude 19000
Route WOODY N872 CIV/N0381F190 Y50 IDOKO/N0371F170 Y50 MATIX
Aircraft A20N/M-SDE2E3FGHIRWXY/LB1

Departure

Time 2026-05-05 19:58
Airport Rotterdam The Hague Airport (EHRD)

Arrival

Time 2026-05-05 20:45
Airport Charles de Gaulle International Airport (LFPG)
Time Latitude Longitude Altitude Speed Heading
2026-05-05 19:34 51.94940 4.43589 -8 ft 0 kts 327°
2026-05-05 19:42 51.94946 4.43582 -8 ft 5 kts 327°
2026-05-05 19:43 51.94998 4.43575 -7 ft 7 kts 28°
2026-05-05 19:43 51.95000 4.43579 -7 ft 0 kts 41°
2026-05-05 19:43 51.95000 4.43581 -7 ft 1 kts 53°
2026-05-05 19:43 51.95010 4.43612 -7 ft 6 kts 65°
2026-05-05 19:44 51.95026 4.43670 -7 ft 1 kts 65°
2026-05-05 19:44 51.95038 4.43689 -7 ft 5 kts 38°
2026-05-05 19:44 51.95085 4.43680 -7 ft 9 kts 335°
2026-05-05 19:44 51.95142 4.43620 -7 ft 8 kts 326°
2026-05-05 19:45 51.95197 4.43562 -7 ft 9 kts 328°
2026-05-05 19:45 51.95246 4.43510 -9 ft 7 kts 322°
2026-05-05 19:45 51.95264 4.43458 -9 ft 4 kts 274°
2026-05-05 19:45 51.95249 4.43410 -8 ft 5 kts 232°
2026-05-05 19:46 51.95227 4.43358 -7 ft 7 kts 236°
2026-05-05 19:46 51.95189 4.43263 -7 ft 13 kts 237°
2026-05-05 19:46 51.95150 4.43161 -6 ft 9 kts 240°
2026-05-05 19:46 51.95126 4.43078 -5 ft 8 kts 246°
2026-05-05 19:47 51.95113 4.43024 -5 ft 0 kts 254°
2026-05-05 19:47 51.95110 4.43003 -5 ft 4 kts 261°
2026-05-05 19:47 51.95126 4.42929 -5 ft 10 kts 313°
2026-05-05 19:47 51.95188 4.42877 -4 ft 6 kts 333°
2026-05-05 19:48 51.95205 4.42864 -4 ft 3 kts 336°
2026-05-05 19:48 51.95232 4.42881 -3 ft 5 kts 38°
2026-05-05 19:48 51.95271 4.42977 -4 ft 31 kts 56°
2026-05-05 19:48 51.95543 4.43661 -9 ft 103 kts 57°
2026-05-05 19:49 51.95793 4.44275 -8 ft 54 kts 59°
2026-05-05 19:49 51.95906 4.44579 -11 ft 9 kts 59°
2026-05-05 19:49 51.95911 4.44653 -10 ft 7 kts 107°
2026-05-05 19:49 51.95871 4.44717 -8 ft 10 kts 150°
2026-05-05 19:50 51.95806 4.44764 -9 ft 9 kts 177°
2026-05-05 19:50 51.95757 4.44686 -9 ft 11 kts 237°
2026-05-05 19:50 51.95712 4.44576 -7 ft 12 kts 236°
2026-05-05 19:50 51.95663 4.44456 -6 ft 14 kts 237°
2026-05-05 19:51 51.95606 4.44313 -5 ft 15 kts 237°
2026-05-05 19:51 51.95545 4.44156 -6 ft 18 kts 237°
2026-05-05 19:51 51.95476 4.43986 -6 ft 19 kts 236°
2026-05-05 19:51 51.95414 4.43831 -10 ft 17 kts 237°
2026-05-05 19:52 51.95347 4.43662 -10 ft 16 kts 237°
2026-05-05 19:52 51.95285 4.43507 -10 ft 16 kts 236°
2026-05-05 19:52 51.95229 4.43370 -7 ft 13 kts 237°
2026-05-05 19:52 51.95184 4.43256 -7 ft 11 kts 237°
2026-05-05 19:53 51.95141 4.43137 -6 ft 13 kts 242°
2026-05-05 19:53 51.95115 4.43041 -5 ft 5 kts 251°
2026-05-05 19:53 51.95112 4.43020 -5 ft 0 kts 256°
2026-05-05 19:56 51.95110 4.42990 -5 ft 6 kts 270°
2026-05-05 19:56 51.95139 4.42916 -4 ft 9 kts 318°
2026-05-05 19:57 51.95195 4.42868 -4 ft 5 kts 332°
2026-05-05 19:57 51.95201 4.42865 -4 ft 3 kts 339°
2026-05-05 19:57 51.95243 4.42912 -3 ft 11 kts 54°
2026-05-05 19:57 51.95390 4.43285 -7 ft 82 kts 57°
2026-05-05 19:58 51.95850 4.44426 -7 ft 155 kts 57°
2026-05-05 19:58 51.96454 4.45962 682 ft 160 kts 57°
2026-05-05 19:58 51.97069 4.47492 1559 ft 166 kts 55°
2026-05-05 19:58 51.97731 4.49077 2404 ft 175 kts 56°
2026-05-05 19:59 51.98399 4.50756 3196 ft 179 kts 57°
2026-05-05 19:59 51.98993 4.52553 3870 ft 188 kts 72°
2026-05-05 19:59 51.99050 4.54674 4591 ft 193 kts 105°
2026-05-05 19:59 51.98383 4.56504 5349 ft 194 kts 138°
2026-05-05 20:00 51.97164 4.57493 5947 ft 206 kts 172°
2026-05-05 20:00 51.95676 4.57268 6357 ft 228 kts 196°
2026-05-05 20:00 51.94076 4.56532 6823 ft 251 kts 195°
2026-05-05 20:00 51.92290 4.55962 7345 ft 272 kts 188°
2026-05-05 20:01 51.90374 4.55700 8154 ft 279 kts 183°
2026-05-05 20:01 51.88422 4.55638 9076 ft 283 kts 181°
2026-05-05 20:01 51.86451 4.55375 9964 ft 286 kts 190°
2026-05-05 20:01 51.84461 4.54620 10587 ft 302 kts 194°
2026-05-05 20:02 51.82356 4.53748 10909 ft 325 kts 195°
2026-05-05 20:02 51.80103 4.52812 11413 ft 339 kts 194°
2026-05-05 20:02 51.77803 4.51861 12227 ft 343 kts 194°
2026-05-05 20:02 51.75476 4.50901 13021 ft 347 kts 194°
2026-05-05 20:03 51.73121 4.49932 13790 ft 351 kts 194°
2026-05-05 20:03 51.70738 4.48952 14541 ft 355 kts 194°
2026-05-05 20:03 51.68323 4.47961 15273 ft 359 kts 194°
2026-05-05 20:03 51.65886 4.46961 15984 ft 363 kts 194°
2026-05-05 20:04 51.63421 4.45952 16675 ft 367 kts 194°
2026-05-05 20:04 51.60935 4.44935 17342 ft 371 kts 194°
2026-05-05 20:04 51.58419 4.43907 17994 ft 375 kts 194°
2026-05-05 20:04 51.55886 4.42874 18621 ft 379 kts 194°
2026-05-05 20:05 51.53313 4.41825 18931 ft 382 kts 194°
2026-05-05 20:05 51.50739 4.40777 19001 ft 382 kts 194°
2026-05-05 20:05 51.48159 4.39728 19000 ft 382 kts 194°
2026-05-05 20:05 51.45587 4.38684 18999 ft 381 kts 194°
2026-05-05 20:06 51.43014 4.37640 19000 ft 381 kts 194°
2026-05-05 20:06 51.40462 4.36451 19000 ft 381 kts 200°
2026-05-05 20:06 51.38033 4.34760 18999 ft 381 kts 206°
2026-05-05 20:06 51.35646 4.32924 19001 ft 381 kts 206°
2026-05-05 20:07 51.33253 4.31094 18999 ft 381 kts 206°
2026-05-05 20:07 51.30855 4.29270 19000 ft 381 kts 206°
2026-05-05 20:07 51.28461 4.27451 18999 ft 381 kts 206°
2026-05-05 20:07 51.26096 4.25655 19001 ft 381 kts 206°
2026-05-05 20:08 51.23672 4.23816 18999 ft 381 kts 206°
2026-05-05 20:08 51.21314 4.22030 19000 ft 381 kts 206°
2026-05-05 20:08 51.18912 4.20212 19000 ft 381 kts 206°
2026-05-05 20:08 51.16473 4.18413 19000 ft 381 kts 202°
2026-05-05 20:09 51.13976 4.16984 19002 ft 381 kts 199°
2026-05-05 20:09 51.11499 4.15634 19001 ft 381 kts 199°
2026-05-05 20:09 51.08986 4.14261 19001 ft 381 kts 199°
2026-05-05 20:09 51.06480 4.12890 19000 ft 381 kts 199°
2026-05-05 20:10 51.03973 4.11518 18999 ft 381 kts 199°
2026-05-05 20:10 51.01464 4.10145 19001 ft 381 kts 199°
2026-05-05 20:10 50.98955 4.08774 19001 ft 381 kts 199°
2026-05-05 20:10 50.96447 4.07405 18999 ft 381 kts 199°
2026-05-05 20:11 50.93940 4.06039 18999 ft 381 kts 199°
2026-05-05 20:11 50.91428 4.04671 19000 ft 381 kts 199°
2026-05-05 20:11 50.88925 4.03315 19001 ft 381 kts 198°
2026-05-05 20:11 50.86346 4.02278 19001 ft 382 kts 191°
2026-05-05 20:12 50.83731 4.01536 19000 ft 382 kts 190°
2026-05-05 20:12 50.81118 4.00789 19000 ft 382 kts 191°
2026-05-05 20:12 50.78508 4.00038 19000 ft 382 kts 191°
2026-05-05 20:12 50.75892 3.99283 19000 ft 382 kts 191°
2026-05-05 20:13 50.73277 3.98528 19000 ft 382 kts 191°
2026-05-05 20:13 50.70671 3.97775 19000 ft 382 kts 191°
2026-05-05 20:13 50.68047 3.97019 19000 ft 382 kts 191°
2026-05-05 20:13 50.65436 3.96267 19001 ft 382 kts 191°
2026-05-05 20:14 50.62818 3.95513 19000 ft 382 kts 191°
2026-05-05 20:14 50.60202 3.94762 19002 ft 382 kts 191°
2026-05-05 20:14 50.58469 3.94264 19000 ft 382 kts 191°
2026-05-05 20:14 50.55005 3.93271 19000 ft 382 kts 191°
2026-05-05 20:15 50.52389 3.92522 19001 ft 382 kts 191°
2026-05-05 20:15 50.49774 3.91774 19000 ft 382 kts 191°
2026-05-05 20:15 50.47159 3.91027 19000 ft 382 kts 191°
2026-05-05 20:15 50.44546 3.90282 19000 ft 382 kts 191°
2026-05-05 20:16 50.42782 3.89779 19000 ft 382 kts 190°
2026-05-05 20:16 50.40196 3.89057 19001 ft 382 kts 190°
2026-05-05 20:16 50.37573 3.88335 19000 ft 382 kts 190°
2026-05-05 20:16 50.34953 3.87615 19001 ft 382 kts 190°
2026-05-05 20:17 50.32329 3.86893 19000 ft 382 kts 190°
2026-05-05 20:17 50.29710 3.86172 19000 ft 382 kts 190°
2026-05-05 20:17 50.27090 3.85450 19000 ft 382 kts 190°
2026-05-05 20:17 50.24471 3.84729 19000 ft 382 kts 190°
2026-05-05 20:18 50.21844 3.84006 19002 ft 382 kts 190°
2026-05-05 20:18 50.19229 3.83288 19000 ft 382 kts 190°
2026-05-05 20:18 50.16608 3.82569 19000 ft 382 kts 190°
2026-05-05 20:18 50.13985 3.81849 19000 ft 382 kts 190°
2026-05-05 20:19 50.11363 3.81132 19000 ft 382 kts 190°
2026-05-05 20:19 50.08744 3.80415 19000 ft 382 kts 190°
2026-05-05 20:19 50.06122 3.79699 19000 ft 383 kts 190°
2026-05-05 20:19 50.03500 3.78983 19002 ft 383 kts 190°
2026-05-05 20:20 50.00917 3.78279 19000 ft 382 kts 190°
2026-05-05 20:20 49.98297 3.77566 19000 ft 382 kts 190°
2026-05-05 20:20 49.95679 3.76854 18907 ft 381 kts 190°
2026-05-05 20:20 49.93065 3.76144 18428 ft 383 kts 190°
2026-05-05 20:21 49.90429 3.75428 17740 ft 385 kts 190°
2026-05-05 20:21 49.87794 3.74714 17122 ft 383 kts 190°
2026-05-05 20:21 49.85174 3.74004 16537 ft 380 kts 190°
2026-05-05 20:21 49.82579 3.73302 15954 ft 377 kts 190°
2026-05-05 20:22 49.80011 3.72609 15379 ft 373 kts 190°
2026-05-05 20:22 49.77473 3.71924 15076 ft 369 kts 190°
2026-05-05 20:22 49.74936 3.71239 15001 ft 372 kts 190°
2026-05-05 20:22 49.72384 3.70552 15000 ft 372 kts 190°
2026-05-05 20:23 49.69835 3.69866 14999 ft 372 kts 190°
2026-05-05 20:23 49.67286 3.69181 15003 ft 372 kts 190°
2026-05-05 20:23 49.64743 3.68498 15001 ft 372 kts 190°
2026-05-05 20:23 49.62187 3.67812 15000 ft 372 kts 190°
2026-05-05 20:24 49.59640 3.67131 14999 ft 372 kts 190°
2026-05-05 20:24 49.57088 3.66448 14999 ft 372 kts 190°
2026-05-05 20:24 49.54539 3.65767 14999 ft 372 kts 190°
2026-05-05 20:24 49.52023 3.64904 14999 ft 371 kts 200°
2026-05-05 20:25 49.49813 3.63013 14998 ft 371 kts 219°
2026-05-05 20:25 49.48070 3.60031 15001 ft 371 kts 238°
2026-05-05 20:25 49.46955 3.56516 15001 ft 371 kts 246°
2026-05-05 20:25 49.45939 3.52879 15001 ft 370 kts 247°
2026-05-05 20:26 49.44928 3.49231 14999 ft 371 kts 247°
2026-05-05 20:26 49.43908 3.45593 15001 ft 371 kts 246°
2026-05-05 20:26 49.42878 3.41968 15000 ft 370 kts 246°
2026-05-05 20:26 49.41841 3.38348 15002 ft 371 kts 246°
2026-05-05 20:27 49.40799 3.34732 15001 ft 370 kts 246°
2026-05-05 20:27 49.39754 3.31114 14997 ft 370 kts 246°
2026-05-05 20:27 49.38710 3.27505 15002 ft 370 kts 246°
2026-05-05 20:27 49.37663 3.23892 15002 ft 370 kts 246°
2026-05-05 20:28 49.36617 3.20283 14999 ft 370 kts 246°
2026-05-05 20:28 49.35567 3.16670 14998 ft 370 kts 246°
2026-05-05 20:28 49.34518 3.13065 14998 ft 371 kts 246°
2026-05-05 20:28 49.33466 3.09455 14998 ft 371 kts 246°
2026-05-05 20:29 49.32413 3.05848 14998 ft 370 kts 246°
2026-05-05 20:29 49.31361 3.02250 14999 ft 370 kts 246°
2026-05-05 20:29 49.30306 2.98645 14983 ft 369 kts 246°
2026-05-05 20:29 49.29266 2.95098 14917 ft 360 kts 246°
2026-05-05 20:30 49.28256 2.91660 14806 ft 348 kts 246°
2026-05-05 20:30 49.27271 2.88311 14436 ft 342 kts 246°
2026-05-05 20:30 49.26297 2.85001 13948 ft 340 kts 246°
2026-05-05 20:30 49.25326 2.81709 13453 ft 338 kts 246°
2026-05-05 20:31 49.24361 2.78440 12970 ft 335 kts 246°
2026-05-05 20:31 49.23404 2.75202 12487 ft 333 kts 246°
2026-05-05 20:31 49.22452 2.71984 12002 ft 331 kts 246°
2026-05-05 20:31 49.21507 2.68796 11531 ft 328 kts 246°
2026-05-05 20:32 49.20593 2.65717 11376 ft 315 kts 246°
2026-05-05 20:32 49.19693 2.62688 11251 ft 302 kts 245°
2026-05-05 20:32 49.18879 2.59947 11069 ft 292 kts 247°
2026-05-05 20:32 49.18251 2.57016 10684 ft 290 kts 258°
2026-05-05 20:33 49.18011 2.53973 10279 ft 288 kts 269°
2026-05-05 20:33 49.17965 2.50957 9887 ft 286 kts 268°
2026-05-05 20:33 49.17908 2.47925 9501 ft 285 kts 268°
2026-05-05 20:33 49.17844 2.44911 9113 ft 283 kts 268°
2026-05-05 20:34 49.17777 2.41912 8720 ft 282 kts 268°
2026-05-05 20:34 49.17710 2.38928 8341 ft 280 kts 268°
2026-05-05 20:34 49.17642 2.35968 7951 ft 278 kts 268°
2026-05-05 20:34 49.17585 2.33012 7563 ft 277 kts 268°
2026-05-05 20:35 49.17538 2.30082 7188 ft 275 kts 269°
2026-05-05 20:35 49.17496 2.27183 7027 ft 274 kts 269°
2026-05-05 20:35 49.17456 2.24263 7002 ft 275 kts 269°
2026-05-05 20:35 49.17403 2.21360 6940 ft 273 kts 264°
2026-05-05 20:36 49.16822 2.18610 6847 ft 275 kts 238°
2026-05-05 20:36 49.15492 2.16520 6542 ft 276 kts 212°
2026-05-05 20:36 49.13764 2.15323 6187 ft 269 kts 202°
2026-05-05 20:36 49.12054 2.14297 5832 ft 260 kts 201°
2026-05-05 20:37 49.10399 2.13307 5480 ft 252 kts 201°
2026-05-05 20:37 49.08998 2.12470 5178 ft 245 kts 201°
2026-05-05 20:37 49.07455 2.11550 4811 ft 240 kts 201°
2026-05-05 20:37 49.05910 2.10628 4442 ft 235 kts 201°
2026-05-05 20:38 49.04404 2.09731 4205 ft 232 kts 201°
2026-05-05 20:38 49.02845 2.09092 4162 ft 232 kts 180°
2026-05-05 20:38 49.01348 2.09676 4161 ft 217 kts 147°
2026-05-05 20:38 49.00365 2.11367 4168 ft 217 kts 115°
2026-05-05 20:39 48.99817 2.13491 4154 ft 215 kts 99°
2026-05-05 20:39 48.99999 2.15727 4171 ft 217 kts 71°
2026-05-05 20:39 49.00454 2.17907 4163 ft 215 kts 75°
2026-05-05 20:39 49.00735 2.20145 4165 ft 216 kts 82°
2026-05-05 20:40 49.00888 2.22383 4148 ft 205 kts 85°
2026-05-05 20:40 49.00991 2.24451 4102 ft 193 kts 85°
2026-05-05 20:40 49.01102 2.26515 3779 ft 195 kts 85°
2026-05-05 20:40 49.01209 2.28554 3481 ft 191 kts 85°
2026-05-05 20:41 49.01316 2.30564 3206 ft 190 kts 85°
2026-05-05 20:41 49.01419 2.32523 2950 ft 185 kts 85°
2026-05-05 20:41 49.01526 2.34535 2700 ft 191 kts 85°
2026-05-05 20:41 49.01631 2.36532 2453 ft 188 kts 85°
2026-05-05 20:42 49.01736 2.38519 2189 ft 186 kts 85°
2026-05-05 20:42 49.01831 2.40313 1957 ft 174 kts 85°
2026-05-05 20:42 49.01915 2.41896 1753 ft 159 kts 85°
2026-05-05 20:42 49.02002 2.43539 1558 ft 158 kts 85°
2026-05-05 20:43 49.02059 2.44624 1421 ft 156 kts 85°
2026-05-05 20:43 49.02130 2.45972 1261 ft 150 kts 85°
2026-05-05 20:43 49.02212 2.47526 1059 ft 142 kts 85°
2026-05-05 20:43 49.02291 2.49023 869 ft 141 kts 85°
2026-05-05 20:44 49.02372 2.50506 670 ft 140 kts 85°
2026-05-05 20:44 49.02457 2.51987 490 ft 140 kts 85°
2026-05-05 20:44 49.02527 2.53419 359 ft 128 kts 87°
2026-05-05 20:44 49.02578 2.54425 359 ft 53 kts 86°
2026-05-05 20:45 49.02525 2.54672 354 ft 12 kts 104°
2026-05-05 20:45 49.02500 2.54823 358 ft 15 kts 104°